Vorticity
-51 -37 62 8 -31 1 -15 4 3 2 6 9 7 7 5 4 4 3 4 4 4 3 1 1 2 2 3 1 2 3 2 2 -1 1 2 0 1 -2 7 -2 -1 1 0
16 -9 -25 19 46 31 22 -7 11 2 4 8 8 5 4 4 4 4 4 3 2 2 3 2 2 1 1 2 2 -1 -0 2 1 2 -0 1 -1 -4 1 1 3 -5 3
24 17 9 18 52 -10 -6 13 -2 5 0 4 7 8 7 6 7 7 5 4 4 4 4 2 2 0 0 -1 -2 -1 -1 -0 -1 2 4 1 -0 0 3 4 3 -0 2
1 7 35 -13 -51 36 38 20 17 3 1 0 4 6 9 6 5 6 5 4 3 3 4 3 3 3 2 1 1 1 1 1 0 -3 0 1 2 2 2 3 -5 -16 14
12 29 10 33 -8 -43 25 -24 9 33 -8 9 0 3 8 10 8 6 6 7 6 6 5 5 5 5 4 3 3 2 2 2 2 3 2 2 3 2 3 5 3 6 4
-2 27 27 44 35 9 19 9 -1 54 15 -9 -1 -1 4 8 10 9 8 5 4 4 4 4 3 4 5 5 3 4 4 4 4 4 4 4 3 6 7 7 8 8 2
12 3 24 14 39 -7 33 27 37 36 53 12 -14 -9 -2 -1 5 7 9 8 7 6 6 5 6 5 4 4 4 5 6 6 6 6 7 6 6 6 7 8 7 8 5
-4 4 10 29 -44 -16 -4 5 -1 -4 33 20 9 51 15 -10 -8 3 4 12 10 4 4 3 7 7 8 6 8 13 7 8 9 8 3 1 2 3 5 11 6 13 7
7 8 9 4 -7 -2 -2 0 -5 -8 2 2 26 -1 -1 64 31 3 -10 -7 4 -0 2 -6 -1 3 7 -2 -6 3 -7 -2 -1 -4 -12 2 6 -9 2 4 5 -3 4
8 8 8 14 4 -2 0 5 15 8 9 -0 -3 11 19 6 -10 18 1 51 33 10 10 20 2 -0 9 33 10 -4 -2 2 -7 22 7 12 5 20 18 14 8 9 6
14 10 8 13 14 14 15 8 9 7 6 6 10 9 7 8 8 2 1 17 19 2 19 33 14 29 21 13 28 23 18 15 5 5 10 6 -1 6 4 2 7 33 8
5 4 7 15 24 21 15 11 9 8 10 8 7 4 5 1 -1 5 13 -0 8 12 14 5 29 -5 11 6 16 7 -2 10 -11 2 4 0 0 18 10 23 30 17 11
3 6 9 8 6 6 7 8 15 24 27 11 8 8 8 6 6 7 3 7 3 2 6 6 3 3 6 -2 21 6 9 2 11 7 1 7 14 20 22 16 12 1 4
7 6 5 5 3 4 4 7 8 10 9 9 15 26 23 10 6 7 9 12 12 13 16 -3 -10 19 -15 3 12 17 14 2 22 18 8 23 11 10 10 -0 1 38 20
6 7 8 9 14 10 5 4 2 3 4 7 9 10 8 9 18 25 21 5 2 8 22 10 1 -16 32 11 -12 12 -1 22 27 -3 16 0 4 -11 2 26 28 27 7
5 6 8 8 3 5 7 6 8 9 6 6 6 7 7 9 10 9 6 10 21 31 17 -1 22 13 -7 -17 12 8 35 -1 -5 22 -1 23 26 45 -4 -6 25 -6 -1
9 7 5 4 5 8 8 6 5 5 5 7 6 4 3 4 8 9 9 8 7 4 7 20 27 18 12 8 15 2 7 1 -18 -16 21 15 -41 -41 -3 10 7 13 23
7 7 8 8 6 6 7 6 8 10 14 12 7 7 9 10 7 4 4 6 9 7 6 5 5 13 24 25 15 7 6 9 7 19 14 22 30 34 22 20 19 7 17
7 7 8 7 6 7 7 4 -0 5 5 5 6 8 9 9 11 12 12 8 7 7 10 9 7 5 8 13 22 25 20 19 13 12 10 14 10 5 8 17 13 -4 7
7 7 8 10 11 7 9 10 9 7 7 8 10 9 8 8 8 9 10 11 12 11 7 6 10 9 5 7 9 16 17 15 16 15 13 14 16 16 9 4 15 10 10
4 6 7 7 7 7 7 6 6 6 6 7 3 4 6 9 9 7 5 4 10 11 14 9 7 8 10 9 6 6 10 11 11 11 15 17 10 9 23 23 4 6 9
11 10 8 7 6 4 6 6 5 6 6 6 8 8 4 5 8 12 10 10 7 6 11 11 14 9 8 10 12 13 7 10 8 7 6 14 7 7 13 -11 -3 2 5
10 9 10 12 15 15 14 12 11 10 7 7 6 6 7 4 2 5 8 12 14 9 6 5 10 11 9 9 7 11 22 8 9 11 2 5 7 -1 11 4 2 2 8
14 15 14 13 13 17 20 27 23 20 18 18 12 10 11 8 7 6 5 9 9 13 15 6 5 10 7 12 11 14 12 23 19 3 9 12 10 19 13 -1 0 14 24
48 49 45 40 41 39 38 34 30 30 38 44 46 43 42 31 22 25 14 7 4 8 12 20 10 10 10 11 9 14 19 25 -7 11 16 4 18 1 3 13 26 20 10
13 13 20 21 25 26 20 24 31 32 34 37 24 12 27 39 48 40 35 34 28 25 13 15 24 16 14 15 8 20 8 12 8 16 24 8 9 21 22 19 10 7 9
Height
5692 5696 5706 5717 5724 5729 5735 5743 5750 5757 5764 5770 5776 5781 5787 5791 5795 5799 5802 5806 5810 5814 5817 5819 5821 5823 5824 5826 5828 5830 5830 5830 5830 5831 5830 5830 5830 5829 5829 5828 5827 5826 5824
5690 5693 5703 5713 5717 5717 5722 5732 5741 5746 5754 5761 5767 5772 5777 5782 5785 5789 5794 5799 5804 5808 5810 5812 5813 5816 5817 5819 5820 5821 5822 5823 5823 5823 5823 5823 5822 5821 5820 5819 5818 5817 5816
5690 5694 5699 5707 5710 5716 5716 5720 5732 5740 5745 5751 5758 5764 5770 5776 5781 5786 5791 5794 5795 5798 5800 5804 5806 5808 5809 5811 5812 5813 5814 5814 5814 5814 5815 5814 5814 5811 5812 5810 5809 5807 5806
5689 5693 5696 5701 5704 5708 5714 5717 5721 5728 5736 5742 5749 5755 5763 5767 5772 5775 5778 5782 5785 5788 5791 5794 5797 5799 5800 5802 5802 5803 5804 5804 5805 5805 5805 5805 5805 5803 5803 5801 5798 5797 5794
5688 5689 5695 5697 5702 5707 5706 5709 5715 5725 5731 5736 5740 5747 5753 5758 5762 5766 5770 5774 5776 5779 5781 5784 5786 5788 5790 5791 5791 5792 5793 5793 5794 5794 5794 5794 5794 5793 5792 5790 5788 5785 5783
5687 5690 5694 5697 5701 5708 5706 5712 5716 5717 5722 5728 5732 5738 5743 5748 5753 5756 5760 5763 5765 5767 5769 5771 5773 5775 5777 5778 5779 5779 5780 5782 5783 5783 5783 5782 5781 5781 5780 5778 5775 5773 5772
5688 5689 5692 5695 5698 5703 5704 5707 5707 5710 5711 5721 5725 5728 5732 5737 5741 5745 5749 5752 5754 5757 5758 5760 5762 5763 5764 5765 5766 5768 5769 5770 5771 5771 5770 5769 5768 5767 5766 5765 5762 5761 5758
5685 5689 5691 5694 5696 5699 5702 5703 5705 5705 5706 5709 5714 5716 5722 5727 5729 5732 5736 5740 5742 5744 5745 5749 5751 5752 5753 5754 5755 5757 5757 5757 5758 5758 5757 5756 5755 5753 5752 5749 5747 5746 5744
5683 5686 5689 5691 5693 5695 5697 5699 5700 5702 5701 5704 5706 5709 5711 5714 5717 5715 5720 5725 5727 5729 5732 5734 5736 5739 5739 5742 5741 5742 5744 5744 5743 5743 5743 5743 5741 5739 5738 5735 5732 5731 5729
5678 5679 5680 5682 5686 5688 5690 5692 5693 5695 5696 5699 5700 5702 5702 5704 5707 5708 5712 5714 5715 5716 5718 5720 5722 5722 5725 5727 5726 5728 5729 5729 5729 5728 5727 5726 5725 5722 5721 5719 5716 5714 5711
5676 5676 5677 5677 5677 5677 5679 5681 5682 5683 5684 5685 5686 5690 5692 5694 5696 5700 5701 5701 5702 5703 5706 5707 5707 5710 5712 5711 5711 5713 5712 5713 5712 5711 5711 5709 5709 5707 5706 5705 5702 5698 5696
5671 5671 5671 5670 5671 5673 5673 5674 5673 5674 5673 5674 5676 5677 5679 5679 5681 5683 5684 5686 5687 5689 5690 5691 5694 5697 5697 5696 5696 5696 5698 5697 5698 5697 5696 5695 5695 5693 5691 5689 5687 5684 5682
5666 5665 5664 5662 5662 5662 5662 5663 5665 5665 5666 5666 5666 5667 5667 5668 5669 5670 5669 5670 5671 5673 5675 5676 5678 5679 5682 5682 5682 5682 5682 5683 5681 5682 5682 5681 5680 5678 5675 5675 5674 5671 5668
5660 5657 5654 5653 5653 5651 5650 5651 5651 5652 5652 5654 5654 5653 5654 5654 5654 5654 5656 5657 5656 5658 5660 5664 5662 5662 5665 5665 5666 5667 5669 5667 5667 5667 5667 5666 5666 5665 5663 5662 5660 5657 5652
5653 5650 5647 5643 5640 5639 5639 5638 5637 5637 5638 5639 5640 5639 5640 5639 5639 5640 5641 5642 5642 5642 5645 5646 5648 5646 5647 5650 5651 5652 5653 5651 5651 5649 5650 5648 5648 5649 5650 5646 5645 5642 5639
5641 5639 5639 5638 5634 5631 5628 5625 5624 5623 5624 5624 5623 5623 5623 5624 5626 5626 5627 5629 5629 5629 5629 5630 5631 5634 5633 5634 5635 5635 5636 5635 5633 5634 5637 5636 5633 5635 5634 5634 5632 5630 5629
5631 5627 5623 5622 5622 5620 5617 5616 5614 5611 5609 5608 5607 5607 5608 5609 5608 5609 5611 5611 5612 5613 5614 5614 5615 5617 5619 5619 5619 5618 5619 5618 5618 5617 5621 5621 5621 5622 5622 5620 5619 5619 5619
5617 5613 5611 5607 5602 5600 5601 5600 5599 5598 5596 5594 5592 5591 5591 5592 5593 5593 5593 5593 5595 5595 5596 5597 5598 5599 5601 5601 5602 5603 5603 5603 5603 5604 5605 5603 5602 5602 5603 5605 5605 5605 5607
5601 5598 5593 5590 5587 5583 5581 5581 5581 5579 5577 5575 5574 5576 5574 5575 5575 5575 5577 5578 5578 5578 5579 5582 5583 5584 5585 5585 5587 5588 5588 5589 5590 5589 5590 5590 5592 5591 5590 5591 5594 5593 5592
5578 5575 5572 5568 5565 5562 5560 5558 5556 5555 5555 5555 5556 5556 5556 5556 5557 5558 5558 5558 5559 5561 5562 5564 5566 5567 5569 5569 5571 5574 5573 5575 5576 5576 5577 5577 5577 5578 5576 5576 5577 5578 5579
5559 5555 5551 5548 5544 5540 5537 5535 5531 5529 5530 5531 5532 5533 5533 5533 5532 5534 5537 5537 5540 5542 5544 5547 5548 5549 5553 5554 5557 5558 5560 5561 5561 5563 5564 5564 5563 5563 5564 5564 5566 5569 5567
5539 5537 5532 5524 5520 5516 5514 5513 5510 5505 5503 5503 5506 5509 5510 5510 5512 5512 5515 5516 5518 5521 5526 5528 5531 5532 5535 5537 5542 5543 5543 5545 5547 5550 5550 5550 5551 5552 5554 5555 5555 5553 5550
5511 5505 5501 5498 5491 5487 5483 5484 5482 5481 5480 5477 5477 5477 5479 5482 5482 5485 5490 5493 5497 5500 5504 5507 5513 5515 5516 5519 5524 5527 5528 5530 5533 5535 5536 5538 5540 5542 5542 5542 5541 5540 5539
5484 5478 5473 5467 5462 5456 5451 5447 5444 5442 5444 5448 5448 5446 5446 5450 5451 5454 5460 5467 5473 5477 5482 5486 5490 5495 5498 5502 5506 5509 5513 5516 5518 5519 5523 5525 5527 5528 5529 5529 5528 5527 5527
5462 5456 5452 5447 5441 5435 5428 5423 5419 5415 5414 5414 5415 5415 5415 5418 5420 5423 5430 5437 5445 5451 5458 5465 5468 5474 5479 5485 5490 5494 5498 5502 5504 5506 5509 5513 5514 5514 5515 5515 5515 5516 5516
5449 5445 5439 5434 5428 5421 5414 5408 5402 5397 5395 5395 5395 5394 5392 5392 5392 5396 5402 5408 5415 5423 5432 5441 5447 5452 5459 5466 5474 5479 5482 5485 5489 5493 5496 5498 5499 5501 5502 5503 5504 5505 5506